Location: Bothwell
(41.7170°N, 112.2589°W)
Time: 14:06:06
(UTC+00:00)

Tiros 1 - Pass Details

Date: 19 May 2026
Orbit: 618 x 649 km, 48.4° (Epoch: 7 June)

Event Time Altitude Azimuth Distance (km) Brightness Sun altitude
Rises 06:57:34 0° 262° (W) 2,922 - -28.2°
Reaches altitude 10° 06:59:58 10° 269° (W) 2,010 - -28.2°
Exits shadow 07:03:42 43° 314° (NW) 888 8.1 -28.3°
Maximum altitude 07:04:27 47° 343° (NNW) 832 8.0 -28.3°
Drops below altitude 10° 07:08:53 10° 58° (ENE) 1,995 9.9 -28.4°
Sets 07:11:16 0° 64° (ENE) 2,899 10.8 -28.4°
